ROMMA est une association bénévole à but non lucratif. Votre soutien est indispensable : ADHERER à ROMMA ou FAIRE un DON

Chambon - (38, Isère)

Oisans (2460 m)   Longitude: 06° 10' 42" E   Latitude: 45° 01' 32" N Station partenaire n°803
 

Détail journalier du     <<     >>

Température Humidité Vent Dir Rafale Dir. rafale Neige 1 Neige 2
Heure (°C) (%) (km/h) (km/h) (cm) (cm)
01:00 0.6655NE13NE176226
02:00 1.16215NE35NE176226
03:00 1.16123NE35NE176226
04:00 0.26620NNE35NE176226
05:00 0.86418NNE31ENE176226
06:00 0.56324NE39NE176226
07:00 0.26225NE41NE176226
08:00 -0.76224NE38NE176226
09:00 -1.35926NE42ENE176226
10:00 0.05214NE41NE176226
11:00 0.9567NE17NE176226
12:00 0.9538NE26NE176226
13:00 3.2474NE19NE175226
14:00 2.3534ENE16ENE175226
15:00 2.3547ENE29ENE174225
16:00 1.95620ENE34ENE173225
17:00 2.45417ENE33ENE173225
18:00 2.05415ENE34ENE173225
19:00 1.65612NE30NE172225
20:00 0.8579NNE23NNE172225
21:00 0.4567N24NNE172225
22:00 0.1547NNE24NNE172225
23:00 -0.55110NNE33NE172225
minuit -0.64421NE56ENE172224

Graphique du 20-04-2019

 

Serveur OMMA